When you browse on this site, cookies collect data to enhance your experience and personalize the content and advertising you see.
Visit our Privacy Policy to learn more. By continuing to use the site, you agree to this use of cookies and data.

Météo par heure à Nam Dinh

Ce jour, 10 Juillet, Vendredi

Heure Température Précipitation Vent Pression Humidité
00:00 +34°C° 0 mm 6 m/s 749 mmHg 63%
01:00 +34°C° 0 mm 6 m/s 749 mmHg 64%
02:00 +33°C° 0 mm 6 m/s 749 mmHg 65%
03:00 +33°C° 0 mm 6 m/s 749 mmHg 66%
04:00 +33°C° 0 mm 6 m/s 749 mmHg 68%
05:00 +33°C° 0 mm 6 m/s 749 mmHg 67%
06:00 +33°C° 0 mm 5 m/s 750 mmHg 66%
07:00 +34°C° 0 mm 5 m/s 750 mmHg 66%
08:00 +36°C° 0 mm 5 m/s 750 mmHg 58%
09:00 +39°C° 0 mm 6 m/s 750 mmHg 50%
10:00 +41°C° 0 mm 6 m/s 750 mmHg 43%
11:00 +42°C° 0 mm 6 m/s 750 mmHg 40%
12:00 +44°C° 0 mm 6 m/s 749 mmHg 36%
13:00 +45°C° 0 mm 6 m/s 749 mmHg 33%
14:00 +45°C° 0 mm 6 m/s 748 mmHg 35%
15:00 +44°C° 0 mm 7 m/s 748 mmHg 36%
16:00 +44°C° 0 mm 7 m/s 747 mmHg 38%
17:00 +41°C° 0 mm 6 m/s 748 mmHg 44%
18:00 +39°C° 0 mm 6 m/s 748 mmHg 49%
19:00 +36°C° 0 mm 5 m/s 748 mmHg 55%
20:00 +36°C° 0.1 mm 5 m/s 749 mmHg 58%
21:00 +35°C° 0.1 mm 4 m/s 750 mmHg 60%
22:00 +35°C° 0.1 mm 3 m/s 750 mmHg 63%
23:00 +35°C° 0 mm 4 m/s 750 mmHg 62%

Demain, 11 Juillet, Samedi

Heure Température Précipitation Vent Pression Humidité
00:00 +34°C° 0 mm 4 m/s 750 mmHg 62%
01:00 +34°C° 0 mm 5 m/s 749 mmHg 61%
02:00 +34°C° 0 mm 5 m/s 749 mmHg 62%
03:00 +33°C° 0 mm 4 m/s 749 mmHg 63%
04:00 +33°C° 0 mm 4 m/s 749 mmHg 64%
05:00 +33°C° 0 mm 4 m/s 749 mmHg 63%
06:00 +34°C° 0 mm 4 m/s 749 mmHg 62%
07:00 +34°C° 0 mm 4 m/s 749 mmHg 61%
08:00 +36°C° 0 mm 5 m/s 749 mmHg 56%
09:00 +37°C° 0 mm 5 m/s 750 mmHg 50%
10:00 +40°C° 0 mm 5 m/s 750 mmHg 45%
11:00 +41°C° 0 mm 5 m/s 750 mmHg 42%
12:00 +42°C° 0 mm 5 m/s 749 mmHg 39%
13:00 +43°C° 0 mm 5 m/s 749 mmHg 37%
14:00 +41°C° 0 mm 6 m/s 749 mmHg 42%
15:00 +40°C° 0 mm 6 m/s 748 mmHg 48%
16:00 +39°C° 0 mm 6 m/s 748 mmHg 53%
17:00 +37°C° 0 mm 5 m/s 749 mmHg 57%
18:00 +36°C° 0 mm 4 m/s 749 mmHg 62%
19:00 +34°C° 0 mm 3 m/s 750 mmHg 66%
20:00 +34°C° 0.2 mm 3 m/s 750 mmHg 67%
21:00 +33°C° 0.2 mm 3 m/s 751 mmHg 68%
22:00 +33°C° 0.2 mm 3 m/s 752 mmHg 69%
23:00 +33°C° 0 mm 4 m/s 751 mmHg 71%

Après-demain, 12 Juillet, Dimanche

Heure Température Précipitation Vent Pression Humidité
00:00 +33°C° 0 mm 5 m/s 751 mmHg 73%
01:00 +33°C° 0 mm 6 m/s 751 mmHg 75%
02:00 +32°C° 0 mm 5 m/s 751 mmHg 76%
03:00 +32°C° 0 mm 5 m/s 751 mmHg 76%
04:00 +32°C° 0 mm 4 m/s 750 mmHg 77%
05:00 +32°C° 0 mm 4 m/s 751 mmHg 76%
06:00 +32°C° 0 mm 4 m/s 751 mmHg 75%
07:00 +33°C° 0 mm 4 m/s 751 mmHg 74%
08:00 +34°C° 0 mm 4 m/s 751 mmHg 68%
09:00 +35°C° 0 mm 3 m/s 752 mmHg 63%
10:00 +36°C° 0 mm 3 m/s 752 mmHg 57%
11:00 +38°C° 0 mm 3 m/s 752 mmHg 52%
12:00 +39°C° 0 mm 3 m/s 751 mmHg 46%
13:00 +40°C° 0 mm 3 m/s 751 mmHg 41%
14:00 +40°C° 0 mm 3 m/s 751 mmHg 42%
15:00 +40°C° 0 mm 3 m/s 750 mmHg 42%
16:00 +40°C° 0 mm 3 m/s 750 mmHg 43%
17:00 +38°C° 0.5 mm 3 m/s 750 mmHg 53%
18:00 +35°C° 0.5 mm 3 m/s 751 mmHg 64%
19:00 +32°C° 0.5 mm 2 m/s 751 mmHg 75%
20:00 +31°C° 1.3 mm 2 m/s 752 mmHg 77%
21:00 +30°C° 1.3 mm 3 m/s 753 mmHg 80%
22:00 +30°C° 1.3 mm 3 m/s 753 mmHg 82%
23:00 +30°C° 0.6 mm 3 m/s 753 mmHg 82%

13 Juillet, Lundi

Heure Température Précipitation Vent Pression Humidité
00:00 +30°C° 0.6 mm 2 m/s 753 mmHg 83%
01:00 +30°C° 0.6 mm 2 m/s 753 mmHg 83%
02:00 +29°C° 0 mm 2 m/s 753 mmHg 83%
03:00 +29°C° 0 mm 2 m/s 753 mmHg 84%
04:00 +29°C° 0 mm 1 m/s 752 mmHg 84%
05:00 +30°C° 0.1 mm 1 m/s 753 mmHg 82%
06:00 +31°C° 0.1 mm 1 m/s 753 mmHg 79%
07:00 +31°C° 0.1 mm 1 m/s 753 mmHg 77%
08:00 +33°C° 0 mm 1 m/s 753 mmHg 69%
09:00 +35°C° 0 mm 1 m/s 754 mmHg 61%
10:00 +38°C° 0 mm 2 m/s 754 mmHg 54%
11:00 +39°C° 0 mm 2 m/s 753 mmHg 49%
12:00 +40°C° 0 mm 2 m/s 753 mmHg 44%
13:00 +41°C° 0 mm 2 m/s 752 mmHg 40%
14:00 +40°C° 0 mm 3 m/s 752 mmHg 42%
15:00 +41°C° 0 mm 4 m/s 751 mmHg 45%
16:00 +40°C° 0 mm 5 m/s 751 mmHg 48%
17:00 +37°C° 0 mm 5 m/s 751 mmHg 55%
18:00 +36°C° 0 mm 5 m/s 751 mmHg 61%
19:00 +34°C° 0 mm 4 m/s 752 mmHg 68%
20:00 +33°C° 0 mm 4 m/s 752 mmHg 70%
21:00 +33°C° 0 mm 3 m/s 753 mmHg 72%
22:00 +33°C° 0 mm 3 m/s 754 mmHg 74%
23:00 +31°C° 0.4 mm 3 m/s 754 mmHg 75%

14 Juillet, Mardi

Heure Température Précipitation Vent Pression Humidité
00:00 +31°C° 0.4 mm 3 m/s 754 mmHg 77%
01:00 +32°C° 0.4 mm 4 m/s 753 mmHg 79%
02:00 +31°C° 0 mm 3 m/s 753 mmHg 80%
03:00 +31°C° 0 mm 3 m/s 753 mmHg 81%
04:00 +30°C° 0 mm 3 m/s 753 mmHg 82%
05:00 +31°C° 0 mm 3 m/s 754 mmHg 79%
06:00 +33°C° 0 mm 3 m/s 754 mmHg 77%
07:00 +33°C° 0 mm 4 m/s 754 mmHg 75%
08:00 +35°C° 0 mm 4 m/s 754 mmHg 67%
09:00 +36°C° 0 mm 3 m/s 754 mmHg 59%
10:00 +38°C° 0 mm 3 m/s 754 mmHg 51%
11:00 +39°C° 0 mm 3 m/s 754 mmHg 47%
12:00 +40°C° 0 mm 3 m/s 753 mmHg 42%
13:00 +42°C° 0 mm 3 m/s 752 mmHg 38%
14:00 +41°C° 0 mm 4 m/s 752 mmHg 41%
15:00 +41°C° 0 mm 5 m/s 751 mmHg 44%
16:00 +40°C° 0 mm 5 m/s 750 mmHg 47%
17:00 +37°C° 0 mm 5 m/s 750 mmHg 53%
18:00 +35°C° 0 mm 5 m/s 751 mmHg 60%
19:00 +34°C° 0 mm 5 m/s 751 mmHg 66%
20:00 +33°C° 0 mm 5 m/s 752 mmHg 69%
21:00 +33°C° 0 mm 5 m/s 753 mmHg 72%
22:00 +32°C° 0 mm 4 m/s 753 mmHg 75%
23:00 +32°C° 0 mm 5 m/s 753 mmHg 76%

15 Juillet, Mercredi

Heure Température Précipitation Vent Pression Humidité
00:00 +32°C° 0 mm 5 m/s 753 mmHg 77%
01:00 +32°C° 0 mm 5 m/s 752 mmHg 77%
02:00 +32°C° 0 mm 5 m/s 752 mmHg 79%
03:00 +32°C° 0 mm 5 m/s 752 mmHg 80%
04:00 +32°C° 0 mm 4 m/s 752 mmHg 81%
05:00 +32°C° 0 mm 4 m/s 752 mmHg 79%
06:00 +32°C° 0 mm 4 m/s 752 mmHg 77%
07:00 +33°C° 0 mm 4 m/s 753 mmHg 74%
08:00 +34°C° 0 mm 4 m/s 753 mmHg 66%
09:00 +36°C° 0 mm 4 m/s 753 mmHg 57%
10:00 +38°C° 0 mm 4 m/s 753 mmHg 48%
11:00 +40°C° 0 mm 4 m/s 752 mmHg 45%
12:00 +41°C° 0 mm 4 m/s 751 mmHg 42%
13:00 +42°C° 0 mm 4 m/s 751 mmHg 39%
14:00 +41°C° 0 mm 5 m/s 750 mmHg 42%
15:00 +40°C° 0 mm 6 m/s 749 mmHg 44%
16:00 +40°C° 0 mm 6 m/s 749 mmHg 47%
17:00 +38°C° 0 mm 6 m/s 749 mmHg 53%
18:00 +35°C° 0 mm 6 m/s 749 mmHg 58%
19:00 +34°C° 0 mm 6 m/s 749 mmHg 63%
20:00 +34°C° 0 mm 6 m/s 750 mmHg 66%
21:00 +33°C° 0 mm 6 m/s 750 mmHg 69%
22:00 +33°C° 0 mm 7 m/s 751 mmHg 71%
23:00 +33°C° 0 mm 7 m/s 751 mmHg 71%
Voir plus